Regional Weather Roundup
Issued by NWS

Home | Current Version | Previous Version | Graphics & Text | Print | Product List | Glossary On
Versions: 1 2 3 4 5 6 7 8 9 10 11 12 13 14 15 16 17 18 19 20 21 22 23 24 25 26 27 28 29 30 31 32 33 34 35 36 37 38 39 40 41 42 43 44 45 46 47 48 49 50
000
ASUS43 KFSD 242202
RWRSD

WEATHER ROUNDUP FOR SOUTH DAKOTA
NATIONAL WEATHER SERVICE SIOUX FALLS SD
500 PM CDT THU APR 24 2014

NOTE: "FAIR" INDICATES FEW OR NO CLOUDS BELOW 12,000 FEET WITH NO
SIGNIFICANT WEATHER AND/OR OBSTRUCTIONS TO VISIBILITY.


SDZ001>005-009-010-012>017-242300-
NORTHWEST AND NORTH CENTRAL SOUTH DAKOTA

CITY           SKY/WX    TMP DP  RH WIND       PRES   REMARKS
BUFFALO          N/A     60  22  23 W18G32    29.70F
FAITH            N/A     60  22  23 W24G31    29.75F
MOBRIDGE       MOSUNNY   65  17  15 NW24G31   29.68F
$$

SDZ012>016-024>037-041>051-057-063-072>074-242300-
SOUTHWEST AND SOUTH CENTRAL SOUTH DAKOTA

CITY           SKY/WX    TMP DP  RH WIND       PRES   REMARKS
RAPID CTY ARPT SUNNY     65  25  22 NE12      29.76F
PIERRE         SUNNY     66  22  18 NW23G30   29.73S
CUSTER         SUNNY     56  14  19 W16G36    29.81F
ELLSWORTH AFB  MOSUNNY   64  24  22 N17       29.75F
PHILIP         SUNNY     66  24  20 NW18G35   29.74F
PINE RIDGE     SUNNY     65  20  17 NW13G24   29.78F
WINNER         FAIR      69  22  16 NW23G37   29.75F
$$

SDZ004>011-016>023-039-040-242300-
NORTHEAST SOUTH DAKOTA

CITY           SKY/WX    TMP DP  RH WIND       PRES   REMARKS
ABERDEEN       MOSUNNY   61  22  22 NW15      29.67F
WATERTOWN      CLOUDY    57  40  52 CALM      29.66F
SISSETON         N/A     52  41  66 CALM      29.68S
$$

SDZ017-020-022-023-036>040-048>070-242300-
SOUTHEAST SOUTH DAKOTA

CITY           SKY/WX    TMP DP  RH WIND       PRES   REMARKS
SIOUX FALLS    MOSUNNY   63  42  46 NW7       29.69F
HURON          MOSUNNY   64  26  23 NW23G37   29.70R
CHAMBERLAIN      N/A     69  25  19 NW25G36   29.73F
MITCHELL       PTSUNNY   67  24  19 NW29G40   29.71S
YANKTON        SUNNY     70  23  17 NW28G41   29.71S
$$

ABBREVIATIONS USED IN REMARKS
   TC - TEMPERATURE IN CELSIUS
  WCI - WIND CHILL INDEX
   HX - HEAT INDEX
  VSB - VISIBILITY




USA.gov is the U.S. government's official web portal to all federal, state and local government web resources and services.